Weather reports worldwide

Advertisment
Santon Downham, United Kingdom (99118): temperature & dewpoint: 04.12.2018 03:00:00 - 10.12.2018 03:00:00 (GMT)Santon Downham, United Kingdom (99118): temperature -20cm & temperature -100cm: 04.12.2018 03:00:00 - 10.12.2018 03:00:00 (GMT)Santon Downham, United Kingdom (99118): precipitation: 04.12.2018 03:00:00 - 10.12.2018 03:00:00 (GMT)
Date & Time tt [°C] td [°C] tt -20cm [°C] tt -100cm [°C] rr [mm]
10.12.2018 03:00:00 1,4 1,2 - - 0,0
10.12.2018 02:00:00 0,4 0,0 - - 0,0
10.12.2018 01:00:00 0,9 0,5 - - 0,0
10.12.2018 00:00:00 1,1 0,5 - - 0,0
09.12.2018 23:00:00 1,4 0,6 - - 0,0
09.12.2018 22:00:00 3,0 0,7 - - 0,0
09.12.2018 21:00:00 4,0 1,1 - - 0,0
09.12.2018 20:00:00 4,9 1,7 - - 0,0
09.12.2018 19:00:00 5,9 2,8 - - 0,0
09.12.2018 18:00:00 7,4 2,6 - - 0,0
09.12.2018 17:00:00 7,4 1,7 - - 0,0
09.12.2018 16:00:00 7,3 1,8 - - 0,0
09.12.2018 15:00:00 7,7 3,2 - - 0,0
09.12.2018 14:00:00 8,6 2,8 - - 0,0
09.12.2018 13:00:00 8,6 3,9 - - 0,0
09.12.2018 12:00:00 8,8 3,9 - - 0,0
09.12.2018 11:00:00 8,7 5,2 - - 0,0
09.12.2018 10:00:00 8,3 5,8 - - 0,0
09.12.2018 09:00:00 8,2 6,4 8,7 9,7 0,0
09.12.2018 08:00:00 8,0 6,2 - - 0,0
09.12.2018 07:00:00 7,9 6,6 - - 0,6
09.12.2018 06:00:00 8,2 6,1 - - 0,6
09.12.2018 05:00:00 8,7 5,0 - - 0,0
09.12.2018 04:00:00 8,8 4,4 - - 0,0
09.12.2018 03:00:00 8,5 4,2 - - 0,0
09.12.2018 02:00:00 8,9 4,4 - - 0,0
09.12.2018 01:00:00 9,0 4,7 - - 0,0
09.12.2018 00:00:00 9,3 4,7 - - 0,0
08.12.2018 23:00:00 8,8 4,4 - - 0,0
08.12.2018 22:00:00 9,3 4,4 - - 0,0
08.12.2018 21:00:00 9,1 4,1 - - 0,0
08.12.2018 20:00:00 10,1 4,6 - - 0,0
08.12.2018 19:00:00 10,5 5,9 - - 0,0
08.12.2018 18:00:00 11,2 6,0 - - 0,0
08.12.2018 17:00:00 10,4 7,4 - - 0,0
08.12.2018 16:00:00 10,5 8,4 - - 0,0
08.12.2018 15:00:00 10,6 7,7 - - 0,0
08.12.2018 14:00:00 10,7 5,1 - - 0,0
08.12.2018 13:00:00 10,7 4,7 - - 0,0
08.12.2018 12:00:00 10,7 4,7 - - 0,0
08.12.2018 11:00:00 10,3 4,2 - - 0,0
08.12.2018 10:00:00 9,2 4,1 - - 0,0
08.12.2018 09:00:00 9,3 4,2 8,7 9,7 0,0
08.12.2018 08:00:00 9,1 4,1 - - 0,0
08.12.2018 07:00:00 9,2 4,1 - - 0,0
08.12.2018 06:00:00 9,2 4,0 - - 0,0
08.12.2018 05:00:00 8,9 4,1 - - 0,0
08.12.2018 04:00:00 7,8 4,2 - - 0,0
08.12.2018 03:00:00 7,7 3,7 - - 0,0
08.12.2018 02:00:00 7,4 3,6 - - 0,0
08.12.2018 01:00:00 7,1 3,4 - - 0,0
08.12.2018 00:00:00 7,1 3,1 - - 0,0
07.12.2018 23:00:00 6,6 2,4 - - 0,0
07.12.2018 22:00:00 6,0 2,0 - - 0,0
07.12.2018 21:00:00 5,8 1,8 - - 0,0
07.12.2018 20:00:00 5,7 1,5 - - 0,0
07.12.2018 19:00:00 6,5 1,8 - - 0,0
07.12.2018 18:00:00 6,3 1,9 - - 0,0
07.12.2018 17:00:00 7,0 2,4 - - 0,0
07.12.2018 16:00:00 7,7 2,7 - - 0,0
07.12.2018 15:00:00 8,7 3,0 - - 0,0
07.12.2018 14:00:00 10,3 6,9 - - 0,0
07.12.2018 13:00:00 9,2 7,8 - - 0,0
07.12.2018 12:00:00 8,7 7,5 - - 1,8
07.12.2018 11:00:00 12,1 11,2 - - 3,4
07.12.2018 10:00:00 12,3 11,2 - - 1,8
07.12.2018 09:00:00 12,4 11,2 9,2 9,7 1,2
07.12.2018 08:00:00 12,5 11,3 - - 0,2
07.12.2018 07:00:00 13,2 11,1 - - 0,2
07.12.2018 06:00:00 13,1 11,5 - - 0,0
07.12.2018 05:00:00 13,1 11,8 - - 0,2
07.12.2018 04:00:00 13,0 12,0 - - 1,8
07.12.2018 03:00:00 13,1 11,9 - - 0,4
07.12.2018 02:00:00 13,3 11,4 - - 0,0
07.12.2018 01:00:00 13,3 11,3 - - 0,0
07.12.2018 00:00:00 13,2 11,2 - - 0,0
06.12.2018 23:00:00 13,1 11,1 - - 0,0
06.12.2018 22:00:00 12,8 11,2 - - 0,0
06.12.2018 21:00:00 13,2 11,0 - - 0,0
06.12.2018 20:00:00 13,0 10,7 - - 0,0
06.12.2018 19:00:00 12,7 10,4 - - 0,0
06.12.2018 18:00:00 12,5 10,0 - - 0,0
06.12.2018 17:00:00 12,7 9,9 - - 0,0
06.12.2018 16:00:00 12,1 10,0 - - 0,0
06.12.2018 15:00:00 11,8 10,2 - - 0,0
06.12.2018 14:00:00 12,1 10,2 - - 0,2
06.12.2018 13:00:00 12,2 9,9 - - 0,0
06.12.2018 12:00:00 12,0 9,8 - - 0,0
06.12.2018 11:00:00 11,7 9,8 - - 0,0
06.12.2018 10:00:00 11,2 9,6 - - 0,0
06.12.2018 09:00:00 10,7 9,1 8,5 9,7 0,0
06.12.2018 08:00:00 10,8 9,2 - - 0,0
06.12.2018 07:00:00 11,0 9,7 - - 0,0
06.12.2018 06:00:00 11,3 9,9 - - 0,0
06.12.2018 05:00:00 11,4 10,5 - - 0,0
06.12.2018 04:00:00 11,4 10,6 - - 0,0
06.12.2018 03:00:00 11,6 10,5 - - 0,0
06.12.2018 02:00:00 11,5 10,7 - - 0,0
06.12.2018 01:00:00 11,6 11,0 - - 0,0
06.12.2018 00:00:00 11,6 11,0 - - 0,0
05.12.2018 23:00:00 11,7 11,1 - - 0,0
05.12.2018 22:00:00 11,4 10,9 - - 0,0
05.12.2018 21:00:00 11,5 10,9 - - 0,2
05.12.2018 20:00:00 11,6 10,9 - - 1,0
05.12.2018 19:00:00 11,5 10,7 - - 1,2
05.12.2018 18:00:00 11,3 10,7 - - 0,2
05.12.2018 17:00:00 11,4 10,7 - - 1,0
05.12.2018 16:00:00 11,6 10,6 - - 0,0
05.12.2018 15:00:00 11,7 10,9 - - 0,2
05.12.2018 14:00:00 11,7 10,9 - - 0,0
05.12.2018 13:00:00 11,1 10,4 - - 0,0
05.12.2018 12:00:00 10,1 9,7 - - 0,0
05.12.2018 11:00:00 9,0 8,6 - - 0,0
05.12.2018 10:00:00 7,9 7,6 - - 0,8
05.12.2018 09:00:00 7,1 6,7 7,7 9,7 0,4
05.12.2018 08:00:00 6,3 5,9 - - 0,2
05.12.2018 07:00:00 5,6 5,3 - - 0,8
05.12.2018 06:00:00 4,9 4,7 - - 0,2
05.12.2018 05:00:00 3,9 3,7 - - 0,2
05.12.2018 04:00:00 3,1 2,9 - - 0,2
05.12.2018 03:00:00 2,5 2,3 - - 0,0
05.12.2018 02:00:00 2,0 1,8 - - 0,0
05.12.2018 01:00:00 1,3 1,0 - - 0,0
05.12.2018 00:00:00 1,1 0,9 - - 0,0
04.12.2018 23:00:00 1,2 0,9 - - 0,0
04.12.2018 22:00:00 0,7 0,4 - - 0,0
04.12.2018 21:00:00 0,4 0,2 - - 0,0
04.12.2018 20:00:00 0,3 0,0 - - 0,0
04.12.2018 19:00:00 0,0 -0,5 - - 0,0
04.12.2018 18:00:00 0,6 0,0 - - 0,0
04.12.2018 17:00:00 1,4 0,6 - - 0,0
04.12.2018 16:00:00 3,1 2,2 - - 0,0
04.12.2018 15:00:00 4,4 3,1 - - 0,0
04.12.2018 14:00:00 5,3 3,2 - - 0,0
04.12.2018 13:00:00 5,7 3,1 - - 0,0
04.12.2018 12:00:00 5,8 3,2 - - 0,0
04.12.2018 11:00:00 4,4 3,2 - - 0,0
04.12.2018 10:00:00 1,5 1,2 - - 0,2
04.12.2018 09:00:00 -2,2 -2,6 8,5 9,7 0,0
04.12.2018 08:00:00 -2,8 -3,4 - - 0,0
04.12.2018 07:00:00 -2,5 -3,0 - - 0,0
04.12.2018 06:00:00 -2,4 -2,9 - - 0,0
04.12.2018 05:00:00 -1,9 -2,3 - - 0,0
04.12.2018 04:00:00 -1,8 -2,2 - - 0,0
04.12.2018 03:00:00 -1,3 -1,8 - - 0,0

tt = temperature
td = dewpoint
tt -20cm = temperature -20cm
tt -100cm = temperature -100cm
rr = precipitation

Next stations